Weather History for Greenville Downtown, SC

Change the Weather History Date:

Friday, November 2, 2012

  Actual Average Record
Temperature  
Mean Temperature 58 °F -  
Max Temperature 75 °F 65 °F 82 °F (2003)
Min Temperature 42 °F 46 °F 32 °F (2014)
Degree Days  
Heating Degree Days 6    
Growing Degree Days 8 (Base 50)    
Moisture  
Dew Point 31 °F    
Average Humidity 39    
Maximum Humidity 55    
Minimum Humidity 27    
Precipitation  
Precipitation 0.00 in - - ()
Sea Level Pressure  
Sea Level Pressure 29.91 in    
Wind  
Wind Speed 6 mph (West)    
Max Wind Speed 16 mph    
Max Gust Speed 22 mph    
Visibility 10 miles    
Events      
Averages and records for this station are not official NWS values.
T = Trace of Precipitation, MM = Missing Value Source: NWS Daily Summary

Daily Weather History Graph

Daily Weather History Graph

Search for Another Location

Airport:

Trip Planner

Search our weather history database for the weather conditions in past years. The results will help you decide how hot, cold, wet, or windy it might be!

Date:

Astronomy

Nov. 02, 2012 Rise Set
Actual Time 7:51 AM EDT 6:33 PM EDT
Civil Twilight 7:25 AM EDT 7:00 PM EDT
Nautical Twilight 6:55 AM EDT 7:29 PM EDT
Astronomical Twilight 6:25 AM EDT 7:59 PM EDT
Moon 9:24 PM EDT (11/2) 11:06 AM EDT (11/2)
Length of Visible Light 11h 34m
Length of Day
10h 42m
Waning Gibbous, 87% of the Moon is Illuminated
Nov 2
Waning Gibbous
Nov 6
Last Quarter
Nov 13
New
Nov 20
First Quarter
Nov 28
Full

Hourly Weather History & Observations

Time (EDT) Temp. Windchill Dew Point Humidity Pressure Visibility Wind Dir Wind Speed Gust Speed Precip Events Conditions
12:53 AM 46.9 °F - 21.9 °F 37% 29.94 in 10.0 mi WSW 4.6 mph - N/A   Clear
1:53 AM 46.0 °F 43.9 °F 21.0 °F 37% 29.92 in 10.0 mi WSW 4.6 mph - N/A   Clear
2:53 AM 45.0 °F 42.6 °F 23.0 °F 42% 29.93 in 10.0 mi West 4.6 mph - N/A   Clear
3:53 AM 46.0 °F 44.8 °F 21.9 °F 39% 29.92 in 10.0 mi WNW 3.5 mph - N/A   Clear
4:53 AM 44.1 °F - 23.0 °F 43% 29.92 in 10.0 mi Calm Calm - N/A   Clear
5:53 AM 42.1 °F - 26.1 °F 53% 29.92 in 10.0 mi Calm Calm - N/A   Clear
6:53 AM 44.1 °F 42.5 °F 26.1 °F 49% 29.92 in 10.0 mi WSW 3.5 mph - N/A   Overcast
7:53 AM 46.0 °F 42.5 °F 25.0 °F 44% 29.93 in 10.0 mi West 6.9 mph - N/A   Clear
8:53 AM 48.0 °F - 27.0 °F 44% 29.94 in 10.0 mi West 6.9 mph - N/A   Clear
9:53 AM 52.0 °F - 28.0 °F 40% 29.94 in 10.0 mi West 9.2 mph - N/A   Clear
10:53 AM 57.0 °F - 30.9 °F 37% 29.93 in 10.0 mi SW 6.9 mph - N/A   Clear
11:53 AM 63.0 °F - 33.1 °F 33% 29.91 in 10.0 mi WSW 11.5 mph - N/A   Clear
12:53 PM 68.0 °F - 35.1 °F 30% 29.88 in 10.0 mi WSW 16.1 mph 20.7 mph N/A   Clear
1:53 PM 71.1 °F - 36.0 °F 28% 29.84 in 10.0 mi WSW 13.8 mph - N/A   Clear
2:53 PM 73.0 °F - 37.0 °F 27% 29.83 in 10.0 mi WSW 13.8 mph 21.9 mph N/A   Clear
3:53 PM 75.0 °F - 39.0 °F 27% 29.82 in 10.0 mi WSW 12.7 mph 20.7 mph N/A   Clear
4:53 PM 73.9 °F - 37.9 °F 27% 29.83 in 10.0 mi WSW 12.7 mph - N/A   Clear
5:53 PM 70.0 °F - 37.0 °F 30% 29.85 in 10.0 mi West 5.8 mph - N/A   Clear
6:53 PM 64.0 °F - 39.0 °F 40% 29.90 in 10.0 mi NNE 4.6 mph - N/A   Clear
7:53 PM 59.0 °F - 37.0 °F 44% 29.93 in 10.0 mi North 8.1 mph - N/A   Clear
8:53 PM 60.1 °F - 35.1 °F 39% 29.94 in 10.0 mi North 3.5 mph - N/A   Clear
9:53 PM 57.0 °F - 36.0 °F 45% 29.96 in 10.0 mi NNE 6.9 mph - N/A   Clear
10:53 PM 53.1 °F - 37.0 °F 55% 29.98 in 10.0 mi Calm Calm - N/A   Clear
11:53 PM 53.1 °F - 35.1 °F 50% 29.99 in 10.0 mi North 5.8 mph - N/A   Clear